Previsão horária em Abejuela

Hoje, 11 Abril, Domingo

Tempo Temperatura Precipitação Vento Pressão Humidade
00:00 +6°C° 0 mm 1 m/s 646 mmHg 90%
01:00 +6°C° 0 mm 1 m/s 645 mmHg 90%
02:00 +6°C° 0 mm 1 m/s 645 mmHg 90%
03:00 +6°C° 0 mm 1 m/s 645 mmHg 90%
04:00 +4°C° 0 mm 2 m/s 645 mmHg 90%
05:00 +4°C° 0 mm 2 m/s 645 mmHg 90%
06:00 +4°C° 0 mm 2 m/s 645 mmHg 90%
07:00 +5°C° 0 mm 3 m/s 646 mmHg 83%
08:00 +6°C° 0 mm 4 m/s 646 mmHg 75%
09:00 +8°C° 0 mm 5 m/s 647 mmHg 68%
10:00 +9°C° 0.1 mm 5 m/s 647 mmHg 67%
11:00 +9°C° 0.1 mm 6 m/s 647 mmHg 65%
12:00 +9°C° 0.1 mm 7 m/s 647 mmHg 64%
13:00 +9°C° 0.1 mm 7 m/s 647 mmHg 62%
14:00 +10°C° 0.1 mm 6 m/s 647 mmHg 61%
15:00 +10°C° 0.1 mm 6 m/s 647 mmHg 59%
16:00 +9°C° 0.1 mm 5 m/s 647 mmHg 62%
17:00 +8°C° 0.1 mm 4 m/s 648 mmHg 65%
18:00 +9°C° 0.1 mm 3 m/s 648 mmHg 67%
19:00 +7°C° 0 mm 3 m/s 648 mmHg 72%
20:00 +5°C° 0 mm 3 m/s 649 mmHg 78%
21:00 +4°C° 0 mm 3 m/s 649 mmHg 83%
22:00 +3°C° 0 mm 3 m/s 650 mmHg 82%
23:00 +3°C° 0 mm 3 m/s 650 mmHg 80%

Amanhã, 12 Abril, Segunda-feira

Tempo Temperatura Precipitação Vento Pressão Humidade
00:00 +2°C° 0 mm 3 m/s 650 mmHg 79%
01:00 +2°C° 0 mm 3 m/s 650 mmHg 78%
02:00 +1°C° 0 mm 3 m/s 650 mmHg 78%
03:00 0°C° 0 mm 3 m/s 650 mmHg 78%
04:00 0°C° 0 mm 3 m/s 650 mmHg 75%
05:00 -1°C° 0 mm 3 m/s 651 mmHg 71%
06:00 -1°C° 0 mm 3 m/s 651 mmHg 68%
07:00 +1°C° 0 mm 3 m/s 651 mmHg 59%
08:00 +2°C° 0 mm 3 m/s 652 mmHg 49%
09:00 +4°C° 0 mm 3 m/s 652 mmHg 39%
10:00 +7°C° 0 mm 3 m/s 653 mmHg 36%
11:00 +7°C° 0 mm 4 m/s 653 mmHg 32%
12:00 +10°C° 0 mm 4 m/s 653 mmHg 28%
13:00 +10°C° 0 mm 4 m/s 653 mmHg 29%
14:00 +10°C° 0 mm 4 m/s 653 mmHg 30%
15:00 +10°C° 0 mm 4 m/s 653 mmHg 31%
16:00 +9°C° 0 mm 3 m/s 653 mmHg 37%
17:00 +8°C° 0 mm 3 m/s 653 mmHg 43%
18:00 +7°C° 0 mm 2 m/s 653 mmHg 49%
19:00 +5°C° 0 mm 2 m/s 653 mmHg 55%
20:00 +5°C° 0 mm 1 m/s 653 mmHg 60%
21:00 +4°C° 0 mm 1 m/s 653 mmHg 65%
22:00 +3°C° 0 mm 1 m/s 653 mmHg 64%
23:00 +3°C° 0 mm 1 m/s 653 mmHg 62%

Depois de amanhã, 13 Abril, Terça-feira

Tempo Temperatura Precipitação Vento Pressão Humidade
00:00 +3°C° 0 mm 1 m/s 653 mmHg 61%
01:00 +2°C° 0 mm 1 m/s 653 mmHg 60%
02:00 +2°C° 0 mm 1 m/s 652 mmHg 59%
03:00 +2°C° 0 mm 1 m/s 652 mmHg 58%
04:00 +2°C° 0 mm 1 m/s 652 mmHg 57%
05:00 +2°C° 0 mm 1 m/s 652 mmHg 55%
06:00 +2°C° 0 mm 1 m/s 652 mmHg 53%
07:00 +4°C° 0 mm 1 m/s 653 mmHg 48%
08:00 +6°C° 0 mm 1 m/s 654 mmHg 42%
09:00 +9°C° 0 mm 1 m/s 654 mmHg 37%
10:00 +10°C° 0 mm 1 m/s 654 mmHg 34%
11:00 +10°C° 0 mm 2 m/s 654 mmHg 32%
12:00 +13°C° 0 mm 2 m/s 654 mmHg 29%
13:00 +12°C° 0 mm 3 m/s 654 mmHg 30%
14:00 +12°C° 0 mm 3 m/s 654 mmHg 31%
15:00 +13°C° 0 mm 3 m/s 653 mmHg 32%
16:00 +11°C° 0 mm 3 m/s 653 mmHg 43%
17:00 +10°C° 0 mm 3 m/s 653 mmHg 54%
18:00 +8°C° 0 mm 3 m/s 652 mmHg 65%
19:00 +7°C° 0 mm 2 m/s 653 mmHg 73%
20:00 +6°C° 0 mm 1 m/s 653 mmHg 82%
21:00 +5°C° 0 mm 1 m/s 653 mmHg 90%
22:00 +5°C° 0 mm 1 m/s 652 mmHg 91%
23:00 +4°C° 0 mm 1 m/s 652 mmHg 92%

14 Abril, Quarta-feira

Tempo Temperatura Precipitação Vento Pressão Humidade
00:00 +3°C° 0 mm 0 m/s 652 mmHg 93%
01:00 +3°C° 0 mm 0 m/s 651 mmHg 92%
02:00 +2°C° 0 mm 0 m/s 651 mmHg 91%
03:00 +2°C° 0 mm 0 m/s 651 mmHg 90%
04:00 +2°C° 0 mm 0 m/s 651 mmHg 90%
05:00 +2°C° 0 mm 0 m/s 651 mmHg 89%
06:00 +4°C° 0 mm 1 m/s 651 mmHg 88%
07:00 +5°C° 0 mm 1 m/s 651 mmHg 79%
08:00 +7°C° 0 mm 1 m/s 651 mmHg 69%
09:00 +8°C° 0 mm 2 m/s 652 mmHg 60%
10:00 +9°C° 0 mm 2 m/s 652 mmHg 56%
11:00 +10°C° 0 mm 3 m/s 652 mmHg 52%
12:00 +10°C° 0 mm 3 m/s 652 mmHg 48%
13:00 +10°C° 0 mm 3 m/s 651 mmHg 49%
14:00 +10°C° 0 mm 4 m/s 651 mmHg 49%
15:00 +10°C° 0 mm 4 m/s 651 mmHg 50%
16:00 +8°C° 0 mm 4 m/s 650 mmHg 55%
17:00 +8°C° 0 mm 3 m/s 650 mmHg 60%
18:00 +7°C° 0 mm 3 m/s 650 mmHg 65%
19:00 +6°C° 0 mm 2 m/s 650 mmHg 71%
20:00 +5°C° 0 mm 2 m/s 650 mmHg 78%
21:00 +4°C° 0 mm 2 m/s 650 mmHg 84%
22:00 +4°C° 0 mm 2 m/s 650 mmHg 87%
23:00 +3°C° 0 mm 2 m/s 650 mmHg 89%

15 Abril, Quinta-feira

Tempo Temperatura Precipitação Vento Pressão Humidade
00:00 +3°C° 0 mm 2 m/s 650 mmHg 92%
01:00 +3°C° 0 mm 2 m/s 650 mmHg 89%
02:00 +3°C° 0 mm 2 m/s 649 mmHg 87%
03:00 +3°C° 0 mm 2 m/s 649 mmHg 85%
04:00 +3°C° 0 mm 2 m/s 649 mmHg 85%
05:00 +3°C° 0 mm 2 m/s 649 mmHg 86%
06:00 +3°C° 0 mm 2 m/s 649 mmHg 86%
07:00 +2°C° 0 mm 3 m/s 649 mmHg 83%
08:00 +3°C° 0 mm 3 m/s 649 mmHg 81%
09:00 +3°C° 0 mm 4 m/s 649 mmHg 78%
10:00 +4°C° 0 mm 4 m/s 649 mmHg 74%
11:00 +3°C° 0 mm 5 m/s 649 mmHg 70%
12:00 +3°C° 0 mm 5 m/s 649 mmHg 66%
13:00 +3°C° 0 mm 6 m/s 649 mmHg 66%
14:00 +3°C° 0 mm 6 m/s 648 mmHg 65%
15:00 +3°C° 0 mm 6 m/s 648 mmHg 65%
16:00 +2°C° 0.1 mm 6 m/s 648 mmHg 69%
17:00 +1°C° 0.1 mm 6 m/s 648 mmHg 72%
18:00 0°C° 0.1 mm 5 m/s 648 mmHg 76%
19:00 0°C° 0 mm 4 m/s 648 mmHg 77%
20:00 0°C° 0 mm 4 m/s 648 mmHg 78%
21:00 +1°C° 0 mm 3 m/s 648 mmHg 79%
22:00 0°C° 0 mm 3 m/s 648 mmHg 79%
23:00 +1°C° 0 mm 2 m/s 647 mmHg 79%

16 Abril, Sexta-feira

Tempo Temperatura Precipitação Vento Pressão Humidade
00:00 +1°C° 0 mm 2 m/s 647 mmHg 79%
01:00 +1°C° 0 mm 2 m/s 647 mmHg 74%
02:00 0°C° 0 mm 3 m/s 647 mmHg 70%
03:00 0°C° 0 mm 3 m/s 646 mmHg 65%
04:00 0°C° 0 mm 3 m/s 646 mmHg 68%
05:00 0°C° 0 mm 3 m/s 646 mmHg 71%
06:00 0°C° 0 mm 3 m/s 646 mmHg 74%
07:00 0°C° 0.1 mm 4 m/s 647 mmHg 72%
08:00 0°C° 0.1 mm 5 m/s 647 mmHg 70%
09:00 +1°C° 0.1 mm 6 m/s 647 mmHg 67%
10:00 +2°C° 0 mm 6 m/s 647 mmHg 61%
11:00 +3°C° 0 mm 6 m/s 647 mmHg 54%
12:00 +4°C° 0 mm 7 m/s 647 mmHg 48%
13:00 +4°C° 0 mm 7 m/s 647 mmHg 46%
14:00 +5°C° 0 mm 7 m/s 647 mmHg 45%
15:00 +5°C° 0 mm 6 m/s 647 mmHg 43%
16:00 +4°C° 0 mm 6 m/s 647 mmHg 48%
17:00 +3°C° 0 mm 5 m/s 647 mmHg 53%
18:00 +2°C° 0 mm 5 m/s 647 mmHg 58%
19:00 +1°C° 0 mm 4 m/s 647 mmHg 66%
20:00 +1°C° 0 mm 3 m/s 647 mmHg 74%
21:00 +2°C° 0 mm 1 m/s 647 mmHg 81%
22:00 +2°C° 0 mm 1 m/s 647 mmHg 82%
23:00 +2°C° 0 mm 1 m/s 647 mmHg 84%
Mostrar mais